Weather Roundup
Issued by NWS

Home | Current Version | Previous Version | Text Only | Print | Product List | Glossary On
Versions: 1 2 3 4 5 6 7 8 9 10 11 12 13 14 15 16 17 18 19 20 21 22 23 24 25 26 27 28 29 30 31 32 33 34 35 36 37 38 39 40 41 42 43 44 45 46 47 48 49 50
000
NZUS93 KARX 030759
HRRWXR

CURRENT HOURLY OBSERVATIONS ACROSS
MUCH OF THE UPPER MISSISSIPPI VALLEY
NATIONAL WEATHER SERVICE LA CROSSE WI
300 AM CDT THU SEP 03 2015


...SOUTHEAST MINNESOTA...


CITY           SKY/WX    TMP DP  RH WIND       PRES   REMARKS
ROCHESTER      CLEAR     66  65  96 S5        29.92F FOG
ROCHESTER/MAYO FAIR      70  70 100 SE6       29.91F
WINONA         CLEAR     72  70  94 CALM      29.89F FOG
AUSTIN         CLEAR     70  66  88 CALM      29.91S FOG
ALBERT LEA     CLEAR     72  70  94 CALM      29.90S
DODGE CENTER   CLEAR     66  66 100 CALM      29.91F FOG
PRESTON        PTCLDY    67  65  94 CALM      29.93S FOG
OWATONNA       CLEAR     70  66  88 SE5       29.90S FOG
FARIBAULT      FOG       66  66 100 CALM      29.90S VSB 1/4
$$

...ELSEWHERE IN MINNESOTA...


CITY           SKY/WX    TMP DP  RH WIND       PRES   REMARKS
MINNEAPOLIS    PTCLDY    68  66  93 E6        29.89F
INTNL FALLS    CLEAR     61  61 100 SE7       29.94S
DULUTH         FOG       62  61  96 E8        29.97S VSB 1/4
RED WING       CLOUDY    70  66  88 CALM      29.89S FOG
REDWOOD FALLS  FOG       70  69  97 E6        29.85F VSB 1/4
MANKATO        CLEAR     70  68  94 SE6       29.88S
WORTHINGTON    CLEAR     70  66  88 SE3       29.87S
FAIRMONT       CLEAR     70  57  64 S6        29.88
$$

...SOUTHWEST WISCONSIN...


CITY           SKY/WX    TMP DP  RH WIND       PRES   REMARKS
LA CROSSE      CLEAR     73  69  87 CALM      29.89S
PRAIRIE DU CHI MOCLDY    72  68  87 CALM      29.90F
BOSCOBEL       CLEAR     73  69  87 CALM      29.91S
LONE ROCK      NOT AVBL
PLATTEVILLE    MOCLDY    72  70  93 S6        29.93F
FORT MC COY    CLEAR     66  64  93 CALM      29.91S
CAMP DOUGLAS   CLEAR     71  71 100 W8        29.90S
VIROQUA          N/A     69  69 100 SW3       29.93S
WIS DELLS      CLEAR     73  66  80 CALM      29.92S
$$

...ELSEWHERE IN WISCONSIN...


CITY           SKY/WX    TMP DP  RH WIND       PRES   REMARKS
MILWAUKEE      PTCLDY    74  69  85 SW8       29.93R
MADISON        CLEAR     73  68  84 CALM      29.92S
GREEN BAY      LGT RAIN  69  68  96 SW5       29.88F FOG
EAU CLAIRE     NOT AVBL
BLACK RVR FLS  FAIR      67  67 100 CALM      29.91R FOG
MEDFORD        CLOUDY    66  66 100 CALM      29.95S FOG
WAUSAU         MOCLDY    68  66  93 N3        29.92S
WIS RAPIDS     CLOUDY    71  68  90 NE5       29.93S
MARSHFIELD     CLOUDY    70  65  84 NE5       29.94R
RICE LAKE      FOG       63  62  96 CALM      29.95S VSB 1/4
$$

...NORTHEAST IOWA...


CITY           SKY/WX    TMP DP  RH WIND       PRES   REMARKS
DECORAH        CLOUDY    72  70  94 CALM      29.91F
MASON CITY     CLEAR     66  66 100 S5        29.91F FOG
CHARLES CITY   CLEAR     68  68 100 SE5       29.92S
OELWEIN        CLOUDY    70  68  94 SE5       29.93F
$$

...ELSEWHERE IN IOWA...


CITY           SKY/WX    TMP DP  RH WIND       PRES   REMARKS
DES MOINES     PTCLDY    75  68  78 S7        29.90S
IOWA CITY      CLEAR     70  68  93 CALM      29.93F
FORT DODGE     CLEAR     68  64  88 E5        29.90S
$$

...NORTHERN ILLINOIS...


CITY           SKY/WX    TMP DP  RH WIND       PRES   REMARKS
CHICAGO-OHARE  PTCLDY    75  69  81 SW5       29.95S
CHICAGO-MIDWAY MOCLDY    78  68  71 SW6       29.95S
MOLINE         PTCLDY    76  68  76 SW6       29.93F
ROCKFORD       MOCLDY    73  68  84 S3        29.96S
PEORIA         CLEAR     73  67  81 S3        29.97F
$$

NOTE: "FAIR" INDICATES FEW OR NO CLOUDS BELOW 12,000 FEET WITH NO
SIGNIFICANT WEATHER AND/OR OBSTRUCTIONS TO VISIBILITY. WIND
SPEEDS ARE IN MILES-PER-HOUR.



USA.gov is the U.S. government's official web portal to all federal, state and local government web resources and services.